• Join FlightAware (Why Join?)
  • Login
  • US Flag 
02:24AM EST


 

Airport Tracker/Info


-or-


 

Live Flight TrackerFlight Track Log ✈ DLH8165 ✈ 26-Oct-2008 ✈ KIAD - KJFK

Flight Track Log - Related Links

Times and Time Zones

All times are in EDT time to prevent confusion due to time zone crossing. See the DLH8165 flight status page for this flight to view local times or setup timezone preferences in your user account.

Time Position Orientation Groundspeed Altitude Reporting Facility
EDT Latitude Longitude Course Direction KTS MPH feet Rate Location/Type
12:31AM 39.0000 -77.4667 360° North 173 199 2,100  Level Potomac TRACON
12:32AM 39.0114 -77.4669 360° North 17,000 2,459 Climbing Washington Center
12:32AM 39.0500 -77.4667 354° North 214 246 4,600 -10,100 Descending Potomac TRACON
12:33AM 39.1092 -77.4747 318° Northwest 237 273 6,900 3,246 Climbing Washington Center
12:33AM 39.1167 -77.4833 27° Northeast 261 300 7,900 2,000 Climbing Potomac TRACON
12:34AM 39.1828 -77.4392 88° East 294 338 8,900 2,667 Climbing Washington Center
12:34AM 39.1833 -77.4167 61° Northeast 327 376 10,300 2,900 Climbing Potomac TRACON
12:35AM 39.2153 -77.3436 63° Northeast 383 441 11,800 2,227 Climbing Washington Center
12:36AM 39.2650 -77.2161 63° Northeast 376 433 13,900 1,600 Climbing Washington Center
12:37AM 39.3169 -77.0831 101° East 391 450 15,000 550 Climbing Washington Center
12:38AM 39.2975 -76.9486 121° Southeast 368 423 15,000 200 Level Washington Center
12:39AM 39.2386 -76.8217 119° Southeast 368 423 15,400 900 Climbing Washington Center
12:40AM 39.1856 -76.6975 97° East 382 440 16,800 800 Climbing Washington Center
12:41AM 39.1722 -76.5528 95° East 392 451 17,000 100 Climbing Washington Center
12:42AM 39.1628 -76.4081 95° East 397 457 17,000  Level Washington Center
12:43AM 39.1533 -76.2608 79° East 397 457 17,000  Level Washington Center
12:44AM 39.1747 -76.1164 76° East 403 464 17,000  Level Washington Center
12:45AM 39.2025 -75.9692 76° East 410 472 17,000 50 Level Washington Center
12:46AM 39.2319 -75.8167 77° East 417 480 17,100 50 Climbing Washington Center
12:47AM 39.2592 -75.6639 76° East 423 487 17,100 -50 Level Washington Center
12:48AM 39.2858 -75.5267 77° East 427 491 17,000 -50 Descending New York Center
12:49AM 39.3125 -75.3808 77° East 435 501 17,000  Level New York Center
12:50AM 39.3392 -75.2322 77° East 425 489 17,000  Level New York Center
12:51AM 39.3653 -75.0861 77° East 425 489 17,000  Level New York Center
12:52AM 39.3914 -74.9400 77° East 425 489 17,000 50 Level New York Center
12:53AM 39.4175 -74.7911 76° East 425 489 17,100 50 Climbing New York Center
12:54AM 39.4453 -74.6447 65° Northeast 425 489 17,100  Level New York Center
12:55AM 39.4892 -74.5208 56° Northeast 425 489 17,100  Level New York Center
12:56AM 39.5556 -74.3922 55° Northeast 415 478 17,100  Level New York Center
12:57AM 39.6242 -74.2664 52° Northeast 422 486 17,100 -353 Level New York Center
12:58AM 39.6942 -74.1486 40° Northeast 422 486 16,400 -1,033 Descending New York Center
12:59AM 39.7825 -74.0528 38° Northeast 416 479 15,000 -2,000 Descending New York Center
12:59AM 39.8500 -73.9833 33° Northeast 413 475 13,000 -2,339 Descending New York TRACON
01:00AM 39.8744 -73.9625 32° Northeast 404 465 12,700 -1,279 Descending New York Center
01:00AM 39.9500 -73.9000 11° North 403 464 11,700 -1,200 Descending New York TRACON
01:01AM 39.9744 -73.8939 24° Northeast 404 465 11,500 -700 Descending New York Center
01:01AM 40.0500 -73.8500 North 365 420 11,000 -500 Descending New York TRACON
01:02AM 40.0672 -73.8467 23° Northeast 380 437 11,000 -938 Level New York Center
01:02AM 40.1500 -73.8000 North 338 389 10,000 -1,200 Descending New York TRACON
01:03AM 40.1622 -73.7992 19° North 340 391 9,800 -1,869 Descending New York Center
01:03AM 40.2333 -73.7667 30° Northeast 323 372 8,100 -2,136 Descending New York TRACON
01:04AM 40.2467 -73.7567 24° Northeast 324 373 7,700 -2,000 Descending New York Center
01:04AM 40.3167 -73.7167 349° North 308 354 5,900 -1,869 Descending New York TRACON
01:05AM 40.3269 -73.7194 21° North 314 361 5,800 -1,770 Descending New York Center
01:05AM 40.4000 -73.6833 77° East 284 327 4,100 -1,729 Descending New York TRACON
01:06AM 40.4008 -73.6789 28° Northeast 296 341 4,100 -1,574 Level New York Center
01:07AM 40.4667 -73.6333 317° Northwest 265 305 2,500 -1,548 Descending New York TRACON
01:07AM 40.4686 -73.6356 29° Northeast 280 322 2,500 -556 Level New York Center
01:07AM 40.5167 -73.6000 41° Northeast 221 254 2,000 -517 Descending New York TRACON
01:08AM 40.5217 -73.5942 327° Northwest 250 288 2,000  Level New York Center
01:09AM 40.5667 -73.6333 158° South 176 203 2,000  Level New York TRACON
01:09AM 40.5625 -73.6311 298° West 161 185 2,000 -98 Level New York Center
01:10AM 40.5833 -73.6833 27° Northeast 147 169 1,900 -100 Descending New York TRACON
01:10AM 40.5861 -73.6814 289° West 145 167 1,900 -800 Level New York Center
01:11AM 40.6000 -73.7333 43° Northeast 144 166 1,100 -828 Descending New York TRACON
01:11AM 40.6058 -73.7261 304° West 145 167 1,100 -469 Level New York Center
01:12AM 40.6258 -73.7650 297° West 145 167 600 4,869 Descending New York Center
01:13AM 40.6453 -73.8153 299° West 145 167 11,000 5,288 Climbing New York Center
01:14AM 40.6650 -73.8625 299° West 145 167 11,000  Level New York Center